FW7048 Weather Reports


time (UTC)temp
F
wind
direction
speed
knots
gust
knots
rain 1hr
in
rain 24hr
in
rain mn
in
humidity
%
barometer
mb
20260508213054 71 5 8.7 16.5 0.00 0.00 0.00 24 1018.2
20260508211556 71 5 7.8 21.7 0.00 0.00 0.00 26 1018.4
20260508210056 71 5 7.8 15.6 0.00 0.00 0.00 26 1018.6
20260508204600 71 5 11.3 18.2 0.00 0.00 0.00 27 1018.7
20260508203102 70 5 9.6 16.5 0.00 0.00 0.00 25 1018.8
20260508201604 70 5 5.2 13.9 0.00 0.00 0.00 27 1018.9
20260508200109 70 5 8.7 15.6 0.00 0.00 0.00 28 1018.9
20260508194602 69 5 8.7 15.6 0.00 0.00 0.00 31 1019.0
20260508193105 68 5 6.1 13.0 0.00 0.00 0.00 29 1019.0
20260508191554 67 5 4.3 10.4 0.00 0.00 0.00 31 1019.2
20260508190056 68 5 4.3 13.0 0.00 0.00 0.00 33 1019.0
20260508184557 68 5 2.6 12.2 0.00 0.00 0.00 33 1019.3
20260508183113 67 5 2.6 8.7 0.00 0.00 0.00 31 1019.4
20260508181611 67 5 6.1 10.4 0.00 0.00 0.00 33 1019.5
20260508180101 67 5 3.5 11.3 0.00 0.00 0.00 34 1019.5
20260508174554 66 5 7.0 12.2 0.00 0.00 0.00 35 1019.6
20260508173103 65 5 3.5 9.6 0.00 0.00 0.00 42 1019.8
20260508171555 65 5 2.6 7.8 0.00 0.00 0.00 41 1019.6
20260508170054 65 5 3.5 9.6 0.00 0.00 0.00 40 1019.5
20260508164552 65 0 2.6 7.0 0.00 0.00 0.00 37 1019.5
20260508163053 65 5 1.7 7.8 0.00 0.00 0.00 35 1019.5
20260508161552 64 5 2.6 7.8 0.00 0.00 0.00 41 1019.3
20260508160058 63 5 3.5 8.7 0.00 0.00 0.00 43 1019.1
20260508154553 63 5 3.5 7.0 0.00 0.00 0.00 41 1019.1
20260508153054 63 5 1.7 4.3 0.00 0.00 0.00 42 1019.1
20260508151553 63 0 1.7 3.5 0.00 0.00 0.00 41 1018.9
20260508150121 63 0 0.0 1.7 0.00 0.00 0.00 39 1018.8
20260508144602 61 0 0.0 1.7 0.00 0.00 0.00 38 1018.7
20260508143055 59 5 0.0 2.6 0.00 0.00 0.00 43 1018.6
20260508141602 56 5 0.0 1.7 0.00 0.00 0.00 52 1018.6
20260508140100 55 0 0.0 0.9 0.00 0.00 0.00 43 1018.5
20260508134556 55 0 0.0 1.7 0.00 0.00 0.00 45 1018.2
20260508133053 53 5 0.9 2.6 0.00 0.00 0.00 43 1018.1
20260508131559 52 5 0.0 2.6 0.00 0.00 0.00 46 1018.2
20260508130054 53 5 0.0 2.6 0.00 0.00 0.00 46 1017.9
20260508124601 53 0 0.9 2.6 0.00 0.00 0.00 44 1017.8
20260508123055 53 0 0.0 2.6 0.00 0.00 0.00 44 1017.7
20260508121556 54 0 0.0 1.7 0.00 0.00 0.00 44 1017.7
20260508120059 54 5 0.0 2.6 0.00 0.00 0.00 44 1017.4
20260508114602 54 5 0.9 3.5 0.00 0.00 0.00 46 1017.4
20260508113124 52 5 0.0 3.5 0.00 0.00 0.00 47 1017.4
20260508111554 51 0 0.0 1.7 0.00 0.00 0.00 52 1017.4
20260508110053 52 5 0.0 2.6 0.00 0.00 0.00 52 1017.3
20260508104558 52 0 0.0 3.5 0.00 0.00 0.00 52 1017.2
20260508103103 53 5 0.0 7.0 0.00 0.00 0.00 51 1017.2
20260508101553 53 5 0.9 4.3 0.00 0.00 0.00 51 1017.3
20260508100052 54 5 1.7 4.3 0.00 0.00 0.00 50 1017.2
20260508094552 53 5 0.9 5.2 0.00 0.00 0.00 50 1017.0
20260508093055 54 5 0.9 4.3 0.00 0.00 0.00 49 1016.8
20260508091556 55 0 0.9 5.2 0.00 0.00 0.00 48 1016.9
20260508090053 55 5 2.6 7.8 0.00 0.00 0.00 48 1016.7
20260508084553 56 5 0.0 3.5 0.00 0.00 0.00 46 1016.9
20260508083055 59 0 0.0 5.2 0.00 0.00 0.00 42 1016.8
20260508081610 59 5 2.6 7.0 0.00 0.00 0.00 41 1016.8
20260508080057 55 5 0.9 10.4 0.00 0.00 0.00 47 1017.0
20260508074559 54 5 2.6 7.0 0.00 0.00 0.00 47 1016.9
20260508073103 55 5 0.9 5.2 0.00 0.00 0.00 47 1017.0
20260508071601 55 0 0.0 0.9 0.00 0.00 0.00 47 1017.0
20260508070100 55 0 0.0 5.2 0.00 0.00 0.00 46 1016.7
20260508064605 55 5 1.7 5.2 0.00 0.00 0.00 47 1016.6
20260508063057 55 5 1.7 4.3 0.00 0.00 0.00 46 1016.7
20260508061601 57 5 0.9 5.2 0.00 0.00 0.00 44 1016.8
20260508060055 56 5 0.0 4.3 0.00 0.00 0.00 44 1016.7
20260508054623 57 5 0.9 4.3 0.00 0.00 0.00 43 1016.6
20260508053101 58 5 2.6 7.0 0.00 0.00 0.00 43 1016.6
20260508051557 57 5 0.9 7.0 0.00 0.00 0.00 42 1016.4
20260508050058 57 360 1.7 4.3 0.00 0.00 0.00 44 1016.5
20260508044553 56 5 0.9 7.0 0.00 0.00 0.00 45 1016.2
20260508043058 57 0 0.9 3.5 0.00 0.00 0.00 43 1016.4
20260508041554 59 0 0.0 5.2 0.00 0.00 0.00 41 1016.4
20260508034553 59 5 1.7 3.5 0.00 0.00 0.00 43 1016.1
20260508033057 61 0 0.0 2.6 0.00 0.00 0.00 37 1015.8
20260508031604 61 5 0.0 2.6 0.00 0.00 0.00 38 1015.9
20260508030105 63 5 0.9 2.6 0.00 0.00 0.00 37 1015.5
20260508024553 66 360 0.9 3.5 0.00 0.00 0.00 32 1015.6
20260508023057 66 5 1.7 4.3 0.00 0.00 0.00 32 1015.5
20260508021603 67 5 2.6 7.0 0.00 0.00 0.00 30 1015.5
20260508020054 70 5 2.6 5.2 0.00 0.00 0.00 29 1015.5
20260508014553 71 5 2.6 8.7 0.00 0.00 0.00 29 1015.4
20260508013056 71 5 3.5 10.4 0.00 0.00 0.00 28 1015.5
20260508011604 72 5 3.5 8.7 0.00 0.00 0.00 28 1015.5
20260508010104 73 5 0.9 5.2 0.00 0.00 0.00 27 1015.7
20260508004555 72 5 2.6 10.4 0.00 0.00 0.00 27 1015.7
20260508003100 72 5 3.5 7.8 0.00 0.00 0.00 28 1015.8
20260508001600 72 5 2.6 7.0 0.00 0.00 0.00 26 1016.0
20260508000116 72 5 0.9 7.0 0.00 0.00 0.00 28 1016.0
20260507234553 69 5 4.3 9.6 0.00 0.00 0.00 30 1016.1
20260507233052 69 5 4.3 7.8 0.00 0.00 0.00 30 1016.3
20260507231600 70 5 3.5 13.0 0.00 0.00 0.00 28 1016.4
20260507230056 71 5 6.1 10.4 0.00 0.00 0.00 26 1016.7
20260507224553 69 5 4.3 12.2 0.00 0.00 0.00 30 1017.2
20260507223056 69 5 6.1 15.6 0.00 0.00 0.00 30 1017.3
20260507221601 70 5 7.0 15.6 0.00 0.00 0.00 30 1017.5
20260507220055 70 5 2.6 9.6 0.00 0.00 0.00 30 1017.5
20260507214555 69 5 4.3 13.0 0.00 0.00 0.00 30 1017.9